Torna al catalogo

COSMOS 249 DEB

AttivoLEO
NORAD 14410·DEBRIS·🇷🇺 Russia

Lanciato Oct 20, 1968 da Baikonur Cosmodrome

Loading…

Prossimi Passaggi (prossime 24 ore)

TLE

AggiornatoSource: Space-Track

Epoca: Sep 14, 2026, 04:42 UTC

1 14410U 68091CL  26257.19595799  .00003429  00000-0  11994-2 0  9994
2 14410  62.2015 324.9041 0301756 319.9416  68.6880 14.14274024116762

Traccia COSMOS 249 DEB in tempo reale con AllMySat

Download on the App Store